Location: Schommer Observatory
(40.5200°N, 74.4500°W)
Time: 08:52:37
(UTC-05:00)

N. Korean satellite - Visible Passes

Search period start: 20 November 2017 00:00
Search period end: 30 November 2017 00:00
Orbit: 460 x 514 km, 97.2° (Epoch: 20 November)

Date Brightness Start Highest point End Pass type
(mag) Time Alt. Az. Time Alt. Az. Time Alt. Az.
20 Nov 9.9 05:52:09 10° NE 05:54:40 17° E 05:57:10 10° SE visible
20 Nov 6.5 18:00:18 10° SSE 18:03:47 86° W 18:07:21 10° NNW visible
21 Nov 6.8 17:37:01 10° SSE 17:40:21 43° ENE 17:43:46 10° N visible
21 Nov 10.2 19:14:04 10° W 19:14:09 10° W 19:14:12 10° W visible
22 Nov 7.7 17:14:13 10° ESE 17:17:01 22° ENE 17:19:50 10° NNE visible
22 Nov 9.3 18:47:49 10° SW 18:50:28 20° W 18:53:09 10° NW visible
23 Nov 8.8 06:14:28 10° NNE 06:17:53 32° E 06:21:16 10° SSE visible
23 Nov 7.9 18:23:33 10° S 18:26:52 39° W 18:30:15 10° NNW visible
24 Nov 9.8 05:51:45 10° NE 05:54:16 17° E 05:56:47 10° SE visible
24 Nov 6.5 17:59:49 10° SSE 18:03:20 86° WSW 18:06:57 10° NNW visible
25 Nov 6.8 17:36:32 10° SSE 17:39:54 44° ENE 17:43:21 10° N visible
25 Nov 10.1 19:13:10 10° W 19:13:41 10° W 19:14:13 10° W visible
26 Nov 7.7 17:13:44 10° ESE 17:16:33 23° ENE 17:19:26 10° NNE visible
26 Nov 9.3 18:47:19 10° SW 18:50:00 20° W 18:52:44 10° NW visible
27 Nov 8.8 06:14:02 10° NNE 06:17:27 32° E 06:20:50 10° SSE visible
27 Nov 7.9 18:23:02 10° S 18:26:23 40° W 18:29:49 10° NNW visible
28 Nov 9.8 05:51:18 10° NE 05:53:49 17° E 05:56:20 10° SE visible
28 Nov 6.5 17:59:18 10° SSE 18:02:51 87° WSW 18:06:31 10° NNW visible
29 Nov 6.8 17:36:01 10° SSE 17:39:24 44° ENE 17:42:54 10° N visible
29 Nov 10.1 19:12:25 10° WSW 19:13:11 11° W 19:13:57 10° WNW visible
